When you browse on this site, cookies collect data to enhance your experience and personalize the content and advertising you see.
Visit our Privacy Policy to learn more. By continuing to use the site, you agree to this use of cookies and data.
  • In Belgium
  • List of Countries
  • For 7 days
  • Water Temperature
  • Satellite Maps
  • Weather Map
  • Weather Widgets
  • user-avatar
    Login

    Hourly Weather Zaharovo

    Today, 23 May, Thursday

    Time Temperature Precipitation Wind Pressure Humidity
    00:00 +14°C° 0 mm 1 mps 735 mmHg 90%
    01:00 +13°C° 0 mm 1 mps 735 mmHg 91%
    02:00 +13°C° 0 mm 1 mps 734 mmHg 92%
    03:00 +13°C° 0 mm 1 mps 734 mmHg 91%
    04:00 +14°C° 0 mm 1 mps 734 mmHg 91%
    05:00 +14°C° 0 mm 1 mps 734 mmHg 90%
    06:00 +16°C° 0 mm 1 mps 734 mmHg 84%
    07:00 +18°C° 0 mm 2 mps 734 mmHg 79%
    08:00 +20°C° 0 mm 2 mps 734 mmHg 73%
    09:00 +20°C° 0.4 mm 2 mps 733 mmHg 70%
    10:00 +21°C° 0.4 mm 3 mps 733 mmHg 66%
    11:00 +22°C° 0.4 mm 3 mps 733 mmHg 63%
    12:00 +22°C° 0.5 mm 3 mps 734 mmHg 64%
    13:00 +22°C° 0.5 mm 3 mps 734 mmHg 65%
    14:00 +22°C° 0.5 mm 3 mps 734 mmHg 66%
    15:00 +21°C° 0.5 mm 3 mps 734 mmHg 72%
    16:00 +20°C° 0.5 mm 3 mps 734 mmHg 77%
    17:00 +19°C° 0.5 mm 3 mps 735 mmHg 83%
    18:00 +17°C° 0 mm 3 mps 735 mmHg 85%
    19:00 +14°C° 0 mm 3 mps 735 mmHg 88%
    20:00 +12°C° 0 mm 3 mps 735 mmHg 90%
    21:00 +11°C° 0 mm 3 mps 736 mmHg 91%
    22:00 +10°C° 0 mm 3 mps 736 mmHg 92%
    23:00 +9°C° 0 mm 3 mps 737 mmHg 92%

    Tomorrow, 24 May, Friday

    Time Temperature Precipitation Wind Pressure Humidity
    00:00 +8°C° 0 mm 3 mps 737 mmHg 92%
    01:00 +7°C° 0 mm 2 mps 738 mmHg 92%
    02:00 +6°C° 0 mm 2 mps 738 mmHg 92%
    03:00 +7°C° 0 mm 2 mps 738 mmHg 90%
    04:00 +7°C° 0 mm 3 mps 738 mmHg 88%
    05:00 +7°C° 0 mm 3 mps 738 mmHg 86%
    06:00 +8°C° 0 mm 3 mps 739 mmHg 79%
    07:00 +10°C° 0 mm 3 mps 739 mmHg 72%
    08:00 +12°C° 0 mm 3 mps 739 mmHg 65%
    09:00 +13°C° 0 mm 3 mps 739 mmHg 61%
    10:00 +14°C° 0 mm 3 mps 739 mmHg 56%
    11:00 +17°C° 0 mm 3 mps 739 mmHg 52%
    12:00 +17°C° 0 mm 3 mps 739 mmHg 52%
    13:00 +18°C° 0 mm 3 mps 739 mmHg 51%
    14:00 +19°C° 0 mm 3 mps 739 mmHg 51%
    15:00 +19°C° 0 mm 3 mps 738 mmHg 54%
    16:00 +18°C° 0 mm 3 mps 738 mmHg 57%
    17:00 +18°C° 0 mm 3 mps 738 mmHg 60%
    18:00 +17°C° 0 mm 2 mps 738 mmHg 68%
    19:00 +15°C° 0 mm 2 mps 737 mmHg 77%
    20:00 +13°C° 0 mm 1 mps 737 mmHg 86%
    21:00 +13°C° 0 mm 2 mps 737 mmHg 87%
    22:00 +13°C° 0 mm 2 mps 737 mmHg 88%
    23:00 +12°C° 0 mm 2 mps 737 mmHg 90%

    Day after tomorrow, 25 May, Saturday

    Time Temperature Precipitation Wind Pressure Humidity
    00:00 +12°C° 0 mm 2 mps 737 mmHg 90%
    01:00 +13°C° 0 mm 2 mps 737 mmHg 91%
    02:00 +12°C° 0 mm 3 mps 736 mmHg 92%
    03:00 +12°C° 0.1 mm 3 mps 736 mmHg 92%
    04:00 +12°C° 0.1 mm 3 mps 736 mmHg 93%
    05:00 +12°C° 0.1 mm 3 mps 736 mmHg 93%
    06:00 +12°C° 0.1 mm 3 mps 735 mmHg 92%
    07:00 +14°C° 0.1 mm 2 mps 735 mmHg 90%
    08:00 +14°C° 0.1 mm 2 mps 735 mmHg 89%
    09:00 +15°C° 0.2 mm 2 mps 735 mmHg 88%
    10:00 +16°C° 0.2 mm 2 mps 735 mmHg 87%
    11:00 +17°C° 0.2 mm 2 mps 734 mmHg 86%
    12:00 +17°C° 0.3 mm 2 mps 734 mmHg 86%
    13:00 +18°C° 0.3 mm 2 mps 734 mmHg 86%
    14:00 +18°C° 0.3 mm 3 mps 733 mmHg 87%
    15:00 +18°C° 0.2 mm 3 mps 733 mmHg 86%
    16:00 +18°C° 0.2 mm 3 mps 732 mmHg 85%
    17:00 +19°C° 0.2 mm 3 mps 732 mmHg 84%
    18:00 +18°C° 0.7 mm 3 mps 731 mmHg 87%
    19:00 +17°C° 0.7 mm 3 mps 731 mmHg 90%
    20:00 +16°C° 0.7 mm 2 mps 731 mmHg 93%
    21:00 +15°C° 0 mm 2 mps 731 mmHg 94%
    22:00 +14°C° 0 mm 2 mps 731 mmHg 95%
    23:00 +13°C° 0 mm 2 mps 731 mmHg 96%

    26 May, Sunday

    Time Temperature Precipitation Wind Pressure Humidity
    00:00 +12°C° 0 mm 2 mps 731 mmHg 97%
    01:00 +12°C° 0 mm 2 mps 731 mmHg 97%
    02:00 +10°C° 0 mm 2 mps 731 mmHg 97%
    03:00 +10°C° 0 mm 2 mps 731 mmHg 97%
    04:00 +10°C° 0 mm 2 mps 731 mmHg 96%
    05:00 +10°C° 0 mm 2 mps 731 mmHg 96%
    06:00 +12°C° 0 mm 2 mps 731 mmHg 89%
    07:00 +12°C° 0 mm 3 mps 731 mmHg 83%
    08:00 +13°C° 0 mm 3 mps 732 mmHg 76%
    09:00 +14°C° 0 mm 3 mps 732 mmHg 69%
    10:00 +16°C° 0 mm 3 mps 732 mmHg 62%
    11:00 +18°C° 0 mm 4 mps 732 mmHg 55%
    12:00 +18°C° 0 mm 4 mps 732 mmHg 53%
    13:00 +19°C° 0 mm 4 mps 731 mmHg 50%
    14:00 +20°C° 0 mm 4 mps 731 mmHg 48%
    15:00 +20°C° 0 mm 3 mps 731 mmHg 49%
    16:00 +19°C° 0 mm 3 mps 731 mmHg 51%
    17:00 +19°C° 0 mm 3 mps 731 mmHg 52%
    18:00 +17°C° 0.2 mm 3 mps 731 mmHg 63%
    19:00 +15°C° 0.2 mm 2 mps 731 mmHg 75%
    20:00 +13°C° 0.2 mm 2 mps 731 mmHg 86%
    21:00 +13°C° 0.1 mm 2 mps 731 mmHg 88%
    22:00 +12°C° 0.1 mm 2 mps 731 mmHg 90%
    23:00 +12°C° 0.1 mm 2 mps 731 mmHg 91%

    27 May, Monday

    Time Temperature Precipitation Wind Pressure Humidity
    00:00 +10°C° 0.7 mm 3 mps 731 mmHg 92%
    01:00 +10°C° 0.7 mm 3 mps 731 mmHg 93%
    02:00 +9°C° 0.7 mm 3 mps 731 mmHg 94%
    03:00 +8°C° 0.1 mm 4 mps 731 mmHg 93%
    04:00 +7°C° 0.1 mm 4 mps 731 mmHg 92%
    05:00 +7°C° 0.1 mm 5 mps 731 mmHg 92%
    06:00 +7°C° 0.1 mm 5 mps 731 mmHg 90%
    07:00 +7°C° 0.1 mm 5 mps 732 mmHg 88%
    08:00 +7°C° 0.1 mm 5 mps 732 mmHg 86%
    09:00 +8°C° 0.1 mm 5 mps 733 mmHg 79%
    10:00 +9°C° 0.1 mm 5 mps 733 mmHg 73%
    11:00 +10°C° 0.1 mm 6 mps 734 mmHg 66%
    12:00 +12°C° 0 mm 5 mps 734 mmHg 62%
    13:00 +13°C° 0 mm 5 mps 735 mmHg 58%
    14:00 +14°C° 0 mm 5 mps 735 mmHg 55%
    15:00 +14°C° 0 mm 4 mps 735 mmHg 57%
    16:00 +14°C° 0 mm 4 mps 736 mmHg 60%
    17:00 +14°C° 0 mm 3 mps 736 mmHg 63%
    18:00 +13°C° 0 mm 3 mps 736 mmHg 66%
    19:00 +13°C° 0 mm 2 mps 737 mmHg 70%
    20:00 +13°C° 0 mm 2 mps 737 mmHg 74%
    21:00 +10°C° 0 mm 2 mps 738 mmHg 79%
    22:00 +9°C° 0 mm 2 mps 738 mmHg 85%
    23:00 +8°C° 0 mm 2 mps 738 mmHg 90%

    28 May, Tuesday

    Time Temperature Precipitation Wind Pressure Humidity
    00:00 +8°C° 0 mm 1 mps 739 mmHg 91%
    01:00 +8°C° 0 mm 1 mps 739 mmHg 92%
    02:00 +8°C° 0 mm 1 mps 739 mmHg 93%
    03:00 +8°C° 0 mm 1 mps 740 mmHg 90%
    04:00 +9°C° 0 mm 1 mps 740 mmHg 87%
    05:00 +10°C° 0 mm 1 mps 740 mmHg 84%
    06:00 +12°C° 0 mm 2 mps 740 mmHg 77%
    07:00 +14°C° 0 mm 2 mps 741 mmHg 70%
    08:00 +17°C° 0 mm 2 mps 741 mmHg 63%
    09:00 +18°C° 0 mm 2 mps 740 mmHg 59%
    10:00 +20°C° 0 mm 3 mps 740 mmHg 55%
    11:00 +21°C° 0 mm 3 mps 740 mmHg 51%
    12:00 +22°C° 0 mm 3 mps 740 mmHg 52%
    13:00 +23°C° 0 mm 4 mps 740 mmHg 53%
    14:00 +25°C° 0 mm 4 mps 740 mmHg 53%
    15:00 +22°C° 0.2 mm 4 mps 739 mmHg 64%
    16:00 +21°C° 0.2 mm 4 mps 739 mmHg 74%
    17:00 +19°C° 0.2 mm 4 mps 738 mmHg 84%
    18:00 +19°C° 0 mm 4 mps 738 mmHg 86%
    19:00 +19°C° 0 mm 4 mps 738 mmHg 89%
    20:00 +18°C° 0 mm 4 mps 737 mmHg 91%
    21:00 +18°C° 0.4 mm 4 mps 737 mmHg 91%
    22:00 +18°C° 0.4 mm 4 mps 737 mmHg 92%
    23:00 +18°C° 0.4 mm 4 mps 737 mmHg 92%
    Show more